Change the Weather History Date:

Wednesday, November 3, 2010

  Actual Average Record
Temperature  
Mean Temperature 49 °F 46 °F  
Max Temperature 63 °F 56 °F 77 °F (1938)
Min Temperature 34 °F 37 °F 12 °F (1951)
Degree Days  
Heating Degree Days 16 19  
Month to date heating degree days 60 55  
Since 1 July heating degree days 390 537  
Cooling Degree Days 0 0  
Month to date cooling degree days 0 0  
Year to date cooling degree days 1285 1003  
Moisture  
Dew Point 32 °F    
Average Humidity 59    
Maximum Humidity 82    
Minimum Humidity 35    
Precipitation  
Precipitation 0.00 in 0.09 in 3.09 in (1935)
Month to date precipitation 0.00 0.28  
Year to date precipitation 42.17 33.50  
Snow  
Snow 0.00 in 0.00 in - ()
Month to date snowfall 0.0 0.0  
Since 1 July snowfall 0.0 0.0  
Since 1 September snowfall 0.0 0.0  
Snow Depth 0.00 in    
Sea Level Pressure  
Sea Level Pressure 30.04 in    
Wind  
Wind Speed 10 mph (West)    
Max Wind Speed 23 mph    
Max Gust Speed 29 mph    
Visibility 10 miles    
Events      
T = Trace of Precipitation, MM = Missing Value Source: NWS Daily Summary

Daily Weather History Graph

Daily Weather History Graph

Search for Another Location

Airport or City:

Trip Planner

Search our weather history database for the weather conditions in past years. The results will help you decide how hot, cold, wet, or windy it might be!

Date:

Astronomy

Nov. 03, 2010 Rise Set
Actual Time 7:36 AM CDT 5:54 PM CDT
Civil Twilight 7:07 AM CDT 6:23 PM CDT
Nautical Twilight 6:34 AM CDT 6:56 PM CDT
Astronomical Twilight 6:02 AM CDT 7:28 PM CDT
Moon 4:33 AM CDT (11/3) 4:05 PM CDT (11/3)
Length of Visible Light 11h 16m
Length of Day
10h 18m
Waning Crescent, 9% of the Moon is Illuminated
Nov 3
Waning Crescent
Nov 5
New
Nov 13
First Quarter
Nov 21
Full
Nov 28
Last Quarter

Hourly Weather History & Observations

Time (CDT) Temp. Windchill Dew Point Humidity Pressure Visibility Wind Dir Wind Speed Gust Speed Precip Events Conditions
12:52 AM 34.0 °F - 28.0 °F 79% 30.22 in 10.0 mi Calm Calm - N/A   Clear
1:52 AM 35.1 °F - 28.9 °F 78% 30.21 in 10.0 mi Calm Calm - N/A   Clear
2:52 AM 35.1 °F - 28.0 °F 76% 30.19 in 10.0 mi Calm Calm - N/A   Clear
3:52 AM 39.9 °F 37.8 °F 28.0 °F 63% 30.17 in 10.0 mi SSW 3.5 mph - N/A   Clear
4:52 AM 41.0 °F 38.0 °F 28.9 °F 62% 30.15 in 10.0 mi SSW 4.6 mph - N/A   Clear
5:52 AM 41.0 °F 37.1 °F 28.9 °F 62% 30.15 in 10.0 mi West 5.8 mph - N/A   Clear
6:52 AM 41.0 °F 38.0 °F 30.0 °F 65% 30.14 in 10.0 mi SW 4.6 mph - N/A   Mostly Cloudy
7:52 AM 42.1 °F 38.4 °F 30.0 °F 62% 30.12 in 10.0 mi West 5.8 mph - N/A   Mostly Cloudy
8:52 AM 43.0 °F 39.5 °F 30.0 °F 60% 30.10 in 10.0 mi WSW 5.8 mph - N/A   Mostly Cloudy
9:52 AM 45.0 °F 40.6 °F 32.0 °F 60% 30.08 in 10.0 mi WSW 8.1 mph - N/A   Scattered Clouds
10:52 AM 52.0 °F - 33.1 °F 49% 30.06 in 10.0 mi West 12.7 mph - N/A   Clear
11:52 AM 54.0 °F - 35.1 °F 49% 30.01 in 10.0 mi West 11.5 mph - N/A   Clear
12:52 PM 57.9 °F - 37.9 °F 47% 29.99 in 10.0 mi WNW 12.7 mph - N/A   Clear
1:52 PM 61.0 °F - 37.9 °F 42% 29.96 in 9.0 mi NW 18.4 mph - N/A   Clear
2:52 PM 63.0 °F - 36.0 °F 37% 29.94 in 10.0 mi WNW 10.4 mph - N/A   Clear
3:52 PM 60.1 °F - 34.0 °F 38% 29.93 in 10.0 mi WNW 13.8 mph 24.2 mph N/A   Clear
4:52 PM 60.1 °F - 32.0 °F 35% 29.92 in 10.0 mi WNW 11.5 mph 20.7 mph N/A   Clear
5:52 PM 57.0 °F - 30.9 °F 37% 29.92 in 10.0 mi NW 18.4 mph 21.9 mph N/A   Clear
6:52 PM 54.0 °F - 30.9 °F 41% 29.93 in 10.0 mi NW 17.3 mph 23.0 mph N/A   Clear
7:52 PM 52.0 °F - 30.9 °F 45% 29.94 in 10.0 mi NW 13.8 mph - N/A   Clear
8:52 PM 48.9 °F - 32.0 °F 52% 29.94 in 10.0 mi WNW 10.4 mph - N/A   Clear
9:52 PM 48.0 °F - 33.1 °F 56% 29.94 in 10.0 mi NW 10.4 mph - N/A   Clear
10:52 PM 46.9 °F - 33.1 °F 59% 29.96 in 10.0 mi NW 13.8 mph - N/A   Mostly Cloudy
11:52 PM 45.0 °F 39.3 °F 34.0 °F 65% 29.95 in 10.0 mi NW 11.5 mph - N/A   Partly Cloudy